Location: Devargunta
(16.7631°N, 80.9077°E)
Time: 16:48:05
(UTC+00:00)

Cosmos 1340 - Pass Details

Date: 19 January 2021
Orbit: 500 x 504 km, 81.2° (Epoch: 25 February)

Event Time Altitude Azimuth Distance (km) Brightness Sun altitude
Rises 12:55:19 0° 159° (SSE) 2,585 6.2 -7.6°
Reaches altitude 10° 12:57:48 10° 143° (SE) 1,702 5.1 -8.1°
Maximum altitude 13:00:39 21° 93° (E) 1,165 3.9 -8.8°
Drops below altitude 10° 13:03:31 10° 43° (NE) 1,703 4.8 -9.4°
Enters shadow 13:03:46 - 40° (NE) 1,783 4.9 -9.5°
